{"data":{"norad_id":69496,"epoch":"2026-09-19T08:11:28.110048Z","epoch_age_seconds":125586,"freshness":"FRESH","line1":"1 69496U 26131U   26262.34129757  .00013343  00000+0  41456-3 0  9999","line2":"2 69496  97.2828 283.2790 0001819  93.3987 266.7464 15.33468597 15463","mean_motion":15.33468597,"eccentricity":0.0001819,"inclination_deg":97.2828,"raan_deg":283.279,"arg_perigee_deg":93.3987,"mean_anomaly_deg":266.7464,"bstar":0.00041456,"rev_number":1546,"period_min":93.904759629062,"perigee_km":464.22811465528,"apogee_km":466.71781996139,"semimajor_km":6843.6099673083,"source":"CELESTRAK","updated_at":"2026-09-20T09:00:44.208906Z"}}